AirNav   Air Wisconsin pilot careers
 
 1294 users online  

9M4 Ackerman Choctaw County Airport
Ackerman, Mississippi, USA

GOING TO ACKERMAN?


FAA INFORMATION EFFECTIVE 21 JUNE 2018

Location

FAA Identifier: 9M4
Lat/Long: 33-18-12.4470N / 089-13-42.2410W
33-18.207450N / 089-13.704017W
33.3034575 / -89.2284003
(estimated)
Elevation: 552 ft. / 168.2 m (surveyed)
Variation: 02E (1985)
From city: 3 miles W of ACKERMAN, MS
Time zone: UTC -5 (UTC -6 during Standard Time)
Zip code: 39735

Airport Operations

Airport use: Open to the public
Activation date: 01/1963
Control tower: no
ARTCC: MEMPHIS CENTER
FSS: GREENWOOD FLIGHT SERVICE STATION
NOTAMs facility: GWO (NOTAM-D service available)
Attendance: UNATNDD
Wind indicator: lighted
Segmented circle: yes
Lights: SS-SR
Beacon: white-green (lighted land airport)
Operates sunset to sunrise.

Airport Communications

CTAF: 122.9

Nearby radio navigation aids

VOR radial/distance  VOR name  Freq  Var
IGBr249/37.4BIGBEE VORTAC116.2004E

Airport Services

Parking: tiedowns
Airframe service: NONE
Powerplant service: NONE
Bottled oxygen: NONE
Bulk oxygen: NONE

Runway Information

Runway 1/19

Dimensions: 3000 x 75 ft. / 914 x 23 m
Surface: asphalt, in good condition
Weight bearing capacity: 
Single wheel: 19.5
Runway edge lights: medium intensity
RUNWAY 1  RUNWAY 19
Gradient: 1.1%1.1%
Traffic pattern: leftleft
Markings: basic, in good conditionbasic, in good condition
Visual slope indicator: 2-light PAPI on left (3.00 degrees glide path)2-light PAPI on left (3.00 degrees glide path)
Obstructions: none47 ft. tree, 1209 ft. from runway, 50 ft. left of centerline, 21:1 slope to clear

Airport Ownership and Management from official FAA records

Ownership: Publicly-owned
Owner: ACKERMAN CITY & CHOCTAW CO
119 E MAIN ST/BOX 394
ACKERMAN, MS 39735
Phone 662-285-6251
Manager: STEVE MONTGOMERY
P O BOX 394, 22 E. QUINN ST., 214 E. QUINN ST.
ACKERMAN, MS 39735
Phone 662-285-7633
CHANCERY CLERK; TIM CUTTS, MAYOR, CITY OF ACKERMAN 662-285-6251. JOEY STEPHENSON PRES. CHOCTAW COUNTY BOARD OF SUPERVISORS 662-285-7372.

Airport Operational Statistics

Aircraft based on the field: 4
Single engine airplanes: 4
    
Aircraft operations: avg 75/month *
67% transient general aviation
33% local general aviation
* for 12-month period ending 27 February 2018

Additional Remarks

WILDLIFE ON AND INVOF RY.

Instrument Procedures

There are no published instrument procedures at 9M4.

Some nearby airports with instrument procedures:

KLMS - Louisville Winston County Airport (13 nm SE)
KOSX - Kosciusko-Attala County Airport (20 nm SW)
KSTF - George M Bryan Airport (21 nm E)
5A6 - Winona-Montgomery County Airport (27 nm W)
M51 - Oktibbeha Airport (30 nm NE)
 
Loc | Ops | Rwys | IFR | FBO | Links
Com | Nav | Svcs | Stats | Notes


 
Area around 9M4 (Ackerman Choctaw County Airport)
 
Road maps at: MapQuest Bing Google
 
Aerial photo
WARNING: Photo may not be current or correct
Aerial photo of 9M4 (Ackerman Choctaw County Airport)
Do you have a better or more recent aerial photo of Ackerman Choctaw County Airport that you would like to share? If so, please send us your photo.

 
Sectional chart

 
Airport distance calculator
Flying to Ackerman Choctaw County Airport? Find the distance to fly.

From to 9M4

Sunrise and sunset
Times for 16-Jul-2018
 Local
(UTC-5)
 Zulu
(UTC)
Morning civil twilight05:3210:32
Sunrise06:0011:00
Sunset20:0601:06
Evening civil twilight20:3401:34

Current date and time
Zulu (UTC)  16-Jul-2018 13:17:56
Local (UTC-5)  16-Jul-2018 08:17:56
 
METAR
KSTF 
21nm E 
161255Z AUTO 00000KT 10SM CLR 24/23 A3004 RMK AO2
K5A6 
27nm W 
161255Z AUTO 20004KT 10SM CLR 25/25 A3002 RMK AO2 T02510247
KGTR 
34nm E 
161256Z 16005KT 10SM FEW001 25/24 A3004 RMK AO2 SLP171 T02500239 PNO $
TAF
KGTR 
34nm E 
161120Z 1612/1712 14004KT P6SM SCT050 BKN250 FM161600 24007KT P6SM VCTS BKN050CB BKN250 FM170200 23003KT P6SM SCT200
NOTAMs
Click for the latest NOTAMs
NOTAMs are issued by the DoD/FAA and will open in a separate window not controlled by AirNav.

 

 
 

Would you like to see your business listed on this page?

 If your business provides an interesting product or service to pilots, flight crews, aircraft, or users of the Ackerman Choctaw County Airport, you should consider listing it here.  To start the listing process, click on the button below
 
Add a business
 

Other Pages about Ackerman Choctaw County Airport

Update a link
 
Copyright © AirNav, LLC. All rights reserved. Privacy Policy  Contact